TimeCST,TemperatureF,Dew PointF,Humidity,Sea Level PressureIn,VisibilityMPH,Wind Direction,Wind SpeedMPH,Gust SpeedMPH,PrecipitationIn,Events,Conditions,WindDirDegrees,DateUTC
12:53 AM,37.0,30.0,76,30.32,10.0,Calm,Calm,-,N/A,,Clear,0,2012-11-18 06:53:00
1:53 AM,37.0,30.0,76,30.32,10.0,Calm,Calm,-,N/A,,Clear,0,2012-11-18 07:53:00
2:53 AM,39.9,30.0,68,30.31,10.0,Calm,Calm,-,N/A,,Clear,0,2012-11-18 08:53:00
3:53 AM,39.0,30.9,73,30.30,10.0,Calm,Calm,-,N/A,,Clear,0,2012-11-18 09:53:00
4:53 AM,37.9,30.9,76,30.29,10.0,SSW,3.5,-,N/A,,Clear,200,2012-11-18 10:53:00
5:53 AM,39.9,30.0,68,30.29,10.0,SSW,3.5,-,N/A,,Clear,200,2012-11-18 11:53:00
6:53 AM,43.0,30.9,62,30.30,10.0,South,5.8,-,N/A,,Clear,180,2012-11-18 12:53:00
7:53 AM,44.1,32.0,63,30.31,10.0,SSW,4.6,-,N/A,,Partly Cloudy,200,2012-11-18 13:53:00
8:53 AM,46.9,32.0,56,30.32,10.0,South,8.1,-,N/A,,Clear,170,2012-11-18 14:53:00
9:53 AM,51.1,33.1,50,30.32,10.0,South,6.9,-,N/A,,Clear,170,2012-11-18 15:53:00
10:53 AM,54.0,33.1,45,30.31,10.0,South,11.5,-,N/A,,Clear,180,2012-11-18 16:53:00
11:53 AM,60.1,33.1,36,30.27,10.0,South,10.4,-,N/A,,Clear,180,2012-11-18 17:53:00
12:53 PM,64.0,32.0,30,30.23,10.0,South,15.0,21.9,N/A,,Clear,170,2012-11-18 18:53:00
1:53 PM,63.0,30.9,30,30.21,10.0,South,18.4,24.2,N/A,,Clear,170,2012-11-18 19:53:00
2:53 PM,64.0,32.0,30,30.19,10.0,South,15.0,20.7,N/A,,Clear,170,2012-11-18 20:53:00
3:53 PM,63.0,32.0,31,30.19,10.0,South,11.5,-,N/A,,Partly Cloudy,180,2012-11-18 21:53:00
4:53 PM,61.0,33.1,35,30.19,10.0,South,12.7,-,N/A,,Mostly Cloudy,170,2012-11-18 22:53:00
5:53 PM,60.1,34.0,38,30.18,10.0,SSE,10.4,17.3,N/A,,Clear,160,2012-11-18 23:53:00
6:53 PM,60.1,34.0,38,30.19,10.0,SSE,9.2,19.6,N/A,,Clear,160,2012-11-19 00:53:00
7:53 PM,59.0,34.0,39,30.20,10.0,South,8.1,-,N/A,,Clear,170,2012-11-19 01:53:00
8:53 PM,57.9,34.0,41,30.21,10.0,South,8.1,-,N/A,,Clear,170,2012-11-19 02:53:00
9:53 PM,55.9,34.0,44,30.21,10.0,South,8.1,-,N/A,,Clear,170,2012-11-19 03:53:00
11:53 PM,55.9,35.1,45,30.22,10.0,South,9.2,-,N/A,,Overcast,180,2012-11-19 05:53:00